Home   Weather   Prenzlau   Past weeks

Flag for Germany Past Weather in Prenzlau, Brandenburg, Germany — Yesterday and Last 2 Weeks

Now
55 °F

Partly cloudy.


Feels Like: 54 °F
Forecast: 51 / 63 °F
Wind: 7 mph from West

Location: Szczecin Airport

Current Time: Aug 21, 2017 at 4:57:47 am

Latest Report: Aug 21, 2017 at 4:00 am


Visibility: N/A

Pressure: 30.07 "Hg

Humidity: 94%

Dew Point: 54 °F

Location of PrenzlauLocation

Past Weather in Prenzlau — Graph

°F

Prenzlau Temperature Yesterday

Maximum temperature yesterday: 68 °F (at 2:00 pm)
Minimum temperature yesterday: 50 °F (at 2:30 am)
Average temperature yesterday: 60 °F

High & Low Weather Summary for the Past Weeks

 TemperatureHumidityPressure
High79 °F (Aug 9, 4:00 pm)100% (Aug 6, 3:00 am)30.27 "Hg (Aug 6, 3:00 am)
Low50 °F (Aug 7, 1:30 am)36% (Aug 7, 5:30 pm)29.74 "Hg (Aug 19, 12:00 am)
Average64 °F76%30.03 "Hg
* Reported Aug 6 3:00 am — Aug 21 3:30 am, Prenzlau. Weather by CustomWeather, © 2017

Note: Actual official high and low records may vary slightly from our data, if they occured in-between our weather recording intervals... More about our weather records

Advertising

Prenzlau Weather History for the Previous 24 Hours

Scroll right to see more
 ConditionsComfort  
Time TempWeatherWind HumidityBarometerVisibility
3:30 am
Mon, Aug 21
55 °FPartly cloudy.7 mph94%30.07 "HgN/A
3:00 am57 °FPartly cloudy.9 mph88%30.07 "HgN/A
2:30 am57 °FPassing clouds.7 mph88%30.07 "HgN/A
2:00 am57 °FPartly cloudy.7 mph88%30.07 "HgN/A
1:30 am57 °FPassing clouds.6 mph88%30.07 "HgN/A
1:00 am57 °FPassing clouds.6 mph88%30.07 "HgN/A
12:30 am57 °FPassing clouds.6 mph94%30.07 "HgN/A
12:00 am57 °FSprinkles. Passing clouds.6 mph88%30.07 "HgN/A
11:30 pm
Sun, Aug 20
57 °FPassing clouds.6 mph88%30.07 "HgN/A
11:00 pm57 °FSprinkles. Passing clouds.6 mph88%30.07 "HgN/A
10:30 pm57 °FPassing clouds.5 mph88%30.07 "HgN/A
10:00 pm57 °FClear.5 mph82%30.07 "Hg10 mi
9:30 pm57 °FPassing clouds.5 mph82%30.07 "HgN/A
9:00 pm59 °FSprinkles. Passing clouds.9 mph77%30.07 "HgN/A
8:30 pm61 °FPassing clouds.13 mph68%30.07 "HgN/A
8:00 pm63 °FPartly sunny.12 mph73%30.07 "HgN/A
7:30 pm64 °FSunny.6 mph60%30.04 "Hg10 mi
7:00 pm66 °FSunny.8 mph52%30.04 "Hg10 mi
6:30 pm66 °FPassing clouds.8 mph56%30.04 "HgN/A
6:00 pm66 °FPassing clouds.8 mph56%30.04 "HgN/A
5:30 pm66 °FScattered clouds.8 mph56%30.07 "HgN/A
5:00 pm66 °FPassing clouds.10 mph52%30.07 "HgN/A
4:30 pm66 °FPassing clouds.10 mph52%30.07 "HgN/A
4:00 pm68 °FPassing clouds.10 mph53%30.04 "HgN/A
3:30 pm68 °FPassing clouds.10 mph53%30.07 "HgN/A
3:00 pm68 °FPassing clouds.10 mph53%30.07 "HgN/A
2:30 pm68 °FScattered clouds.13 mph53%30.07 "HgN/A
2:00 pm68 °FScattered clouds.13 mph53%30.07 "HgN/A
1:30 pm66 °FScattered clouds.10 mph56%30.07 "HgN/A
1:00 pm66 °FPassing clouds.10 mph60%30.07 "HgN/A
12:30 pm64 °FBroken clouds.10 mph60%30.07 "HgN/A
12:00 pm66 °FScattered clouds.10 mph56%30.07 "HgN/A
11:30 am64 °FBroken clouds.10 mph60%30.07 "HgN/A
11:00 am64 °FPassing clouds.10 mph68%30.07 "HgN/A
10:30 am63 °FPassing clouds.9 mph73%30.07 "HgN/A
10:00 am63 °FPassing clouds.8 mph73%30.07 "HgN/A
9:30 am61 °FPassing clouds.7 mph77%30.07 "HgN/A
9:00 am59 °FPassing clouds.7 mph82%30.07 "HgN/A
8:30 am57 °FPassing clouds.6 mph88%30.07 "HgN/A
8:00 am55 °FPassing clouds.5 mph88%30.07 "HgN/A
7:30 am54 °FSunny.3 mph94%30.07 "Hg10 mi
7:00 am52 °FSunny.5 mph94%30.07 "Hg10 mi
6:30 am52 °FPassing clouds.3 mph94%30.07 "HgN/A
6:00 am52 °FSunny.3 mph94%30.07 "Hg10 mi
5:30 am50 °FClear.5 mph94%30.07 "Hg10 mi
5:00 am54 °FClear.5 mph88%30.04 "Hg10 mi
4:30 am54 °FClear.3 mph88%30.04 "Hg10 mi
4:00 am54 °FClear.3 mph88%30.04 "Hg10 mi
Weather by CustomWeather, © 2017

See weather overviewHow to use our weather pages